Perryton, Texas, United States (79070)
Lat: 36.40N, Lon: 100.8W
Wx Zone: TXZ004
Local Info
Past Weather Observations for Today

NOTE: This archive is for the closest National Weather Service station to Perryton. Information may differ from the station used for current weather conditions.

Click here for Long-term Archive

Time Weather Temperature Dewpoint Humidity Pressure Winds Precip Visibility
15:55
Clear
91°F / 33°C 68°F / 20°C 46% 29.92 in
(1013 mb)
S 11.5 mph
(S 19 kph)
- 10SM
15:35
Partly Cloudy
91°F / 33°C 66°F / 19°C 44% 29.95 in
(1014 mb)
SSE 13.8 mph
(SSE 22 kph)
- 10SM
15:15
Clear
91°F / 33°C 68°F / 20°C 46% 29.95 in
(1014 mb)
S 8.1 mph
(S 13 kph)
- 10SM
14:55
Clear
91°F / 33°C 68°F / 20°C 46% 29.95 in
(1014 mb)
S 11.5 mph
(S 19 kph)
- 10SM
14:35
Partly Cloudy
91°F / 33°C 68°F / 20°C 46% 29.95 in
(1014 mb)
S 10.4 mph
(S 17 kph)
- 10SM
14:15
Partly Cloudy
91°F / 33°C 68°F / 20°C 46% 29.98 in
(1015 mb)
SSE 12.7 mph
(SSE 20 kph)
- 10SM
13:55
Clear
91°F / 33°C 70°F / 21°C 49% 29.98 in
(1015 mb)
SW 9.2 mph
(SW 15 kph)
- 10SM
13:35
Clear
90°F / 32°C 68°F / 20°C 49% 29.98 in
(1015 mb)
SE 9.2 mph
(SE 15 kph)
- 10SM
13:15
Clear
88°F / 31°C 68°F / 20°C 52% 29.98 in
(1015 mb)
S 9.2 mph
(S 15 kph)
- 10SM
12:55
Clear
88°F / 31°C 68°F / 20°C 52% 29.98 in
(1015 mb)
SE 5.8 mph
(SE 9 kph)
- 10SM
12:35
Clear
88°F / 31°C 68°F / 20°C 52% 30.01 in
(1016 mb)
SW 4.6 mph
(SW 7 kph)
- 10SM
12:15
Clear
86°F / 30°C 68°F / 20°C 55% 30.01 in
(1016 mb)
SW 8.1 mph
(SW 13 kph)
- 10SM
11:55
Clear
86°F / 30°C 68°F / 20°C 55% 30.01 in
(1016 mb)
SE 4.6 mph
(SE 7 kph)
- 10SM
11:35
Clear
84°F / 29°C 66°F / 19°C 55% 30.01 in
(1016 mb)
SW 4.6 mph
(SW 7 kph)
- 10SM
11:15
Clear
84°F / 29°C 66°F / 19°C 55% 30.01 in
(1016 mb)
SE 3.5 mph
(SE 6 kph)
- 10SM
10:55
Clear
82°F / 28°C 66°F / 19°C 58% 30.01 in
(1016 mb)
SE 5.8 mph
(SE 9 kph)
- 10SM
10:35
Clear
82°F / 28°C 66°F / 19°C 58% 30.01 in
(1016 mb)
SW 3.5 mph
(SW 6 kph)
- 10SM
10:15
Clear
81°F / 27°C 68°F / 20°C 66% 30.01 in
(1016 mb)
SE 3.5 mph
(SE 6 kph)
- 10SM
09:55
Clear
79°F / 26°C 68°F / 20°C 70% 30.01 in
(1016 mb)
Calm -
09:35
Clear
77°F / 25°C 68°F / 20°C 74% 30.01 in
(1016 mb)
SSW 3.5 mph
(SSW 6 kph)
-
09:15
Clear
75°F / 24°C 68°F / 20°C 78% 30.01 in
(1016 mb)
SW 4.6 mph
(SW 7 kph)
-
08:55
Clear
73°F / 23°C 68°F / 20°C 83% 30.04 in
(1017 mb)
Calm -
08:35
Clear
73°F / 23°C 68°F / 20°C 83% 30.04 in
(1017 mb)
Calm - 10SM
08:15
Clear
73°F / 23°C 68°F / 20°C 83% 30.04 in
(1017 mb)
Calm -
07:55
Fair
72°F / 22°C 68°F / 20°C 88% 30.04 in
(1017 mb)
Calm -
07:35
Fair
68°F / 20°C 68°F / 20°C 100% 30.04 in
(1017 mb)
Calm -
07:15
Fair
70°F / 21°C 68°F / 20°C 94% 30.04 in
(1017 mb)
W 3.5 mph
(W 6 kph)
-
06:55
Fair
68°F / 20°C 66°F / 19°C 94% 30.04 in
(1017 mb)
Calm -
06:35
Fair
66°F / 19°C 66°F / 19°C 100% 30.04 in
(1017 mb)
Calm -
06:15
Fair
68°F / 20°C 66°F / 19°C 94% 30.04 in
(1017 mb)
Calm -
05:55
Fair
68°F / 20°C 66°F / 19°C 94% 30.04 in
(1017 mb)
Calm -
05:35
Mostly Cloudy
68°F / 20°C 66°F / 19°C 94% 30.04 in
(1017 mb)
NE 4.6 mph
(NE 7 kph)
-
05:15
Fair
68°F / 20°C 66°F / 19°C 94% 30.01 in
(1016 mb)
Calm -
04:55
Fair
68°F / 20°C 66°F / 19°C 94% 30.01 in
(1016 mb)
ENE 5.8 mph
(ENE 9 kph)
-
04:35
Fair
68°F / 20°C 66°F / 19°C 94% 30.01 in
(1016 mb)
Calm -
04:15
Fair
68°F / 20°C 66°F / 19°C 94% 30.01 in
(1016 mb)
Calm -
03:55
Overcast
68°F / 20°C 66°F / 19°C 94% 30.01 in
(1016 mb)
Calm -
03:35
Fair
68°F / 20°C 66°F / 19°C 94% 29.98 in
(1015 mb)
Calm -
03:15
Fair
68°F / 20°C 66°F / 19°C 94% 29.98 in
(1015 mb)
Calm -
02:55
Mostly Cloudy
68°F / 20°C 66°F / 19°C 94% 30.01 in
(1016 mb)
Calm -
02:35
Mostly Cloudy
68°F / 20°C 68°F / 20°C 100% 30.01 in
(1016 mb)
Calm -
02:15
Fair
68°F / 20°C 66°F / 19°C 94% 30.01 in
(1016 mb)
Calm -
01:55
Fair
68°F / 20°C 66°F / 19°C 94% 30.01 in
(1016 mb)
Calm -
01:35
Fair
68°F / 20°C 66°F / 19°C 94% 30.01 in
(1016 mb)
Calm -
01:15
Fair
70°F / 21°C 66°F / 19°C 88% 30.04 in
(1017 mb)
Calm -
00:55
Fair
70°F / 21°C 68°F / 20°C 94% 30.04 in
(1017 mb)
Calm -
00:35
Fair
70°F / 21°C 66°F / 19°C 88% 30.04 in
(1017 mb)
Calm -
00:15
Fair
70°F / 21°C 66°F / 19°C 88% 30.04 in
(1017 mb)
Calm -
Time Weather Temperature Dewpoint Humidity Pressure Winds Precip Visibility


Weather for websites

WeatherForYou.com, LLC is not responsible for any damages or problems caused by this service. Current weather conditions are obtained from the closest station including government and personal stations which may have varying degrees of accuracy. Weather forecasts are derived from the NOAA NDFD. Like all things, this site belongs to Jesus Christ... He just trusts us to maintain it. If you have any questions or comments email webmaster@weatherforyou.com

Copyright © 2015, WeatherForYou.com LLC. All rights reserved.